Wind_Speed
22 21 21 24 26 24 24 24 23 23 23 23 23 24 23 24 24 24 25 25 25 25 26 26 25 25 23 23 22 23 24 23 23 16 11 24 32 27 22 22 17 14 16 13 14 18 13 14 14 16 13 8 6 4 7 8 4 3 2 3 4 4 4 4 4 3 2 3 6 8 12 16 13 10 10 11 14 16 13 8 9 9 10 14 20 29 32 33
22 22 23 25 26 25 25 25 25 25 25 25 25 25 24 25 25 25 25 25 25 25 26 26 25 24 22 22 21 21 22 21 20 17 20 25 26 27 25 23 20 14 19 19 19 20 13 12 14 13 9 5 6 5 5 6 5 4 2 3 4 4 5 4 3 4 3 2 8 12 15 16 15 15 12 12 13 13 13 10 12 13 13 15 22 29 30 31
23 23 24 24 26 27 27 26 26 27 27 26 26 26 25 26 26 26 26 26 26 26 27 26 25 23 22 21 19 18 17 15 11 13 18 16 12 19 22 23 21 16 19 22 22 23 17 14 15 11 6 6 5 5 5 4 4 5 4 3 7 7 6 7 6 5 4 5 11 12 14 15 16 15 11 13 15 14 14 13 14 15 16 18 19 24 28 28
24 24 23 25 28 29 28 28 28 28 28 28 28 27 27 27 27 27 27 26 26 26 27 26 24 22 21 19 17 14 11 8 5 9 14 11 5 14 21 21 23 20 19 23 22 22 19 12 11 9 6 6 5 5 6 5 4 3 5 6 9 6 4 9 10 9 8 6 11 10 13 14 14 12 12 16 14 10 13 17 19 20 21 21 18 21 25 24
24 24 24 27 30 30 30 30 29 30 30 30 30 29 29 29 28 28 27 27 27 26 27 25 23 22 20 17 13 9 5 3 4 6 10 6 4 15 23 21 22 23 20 21 19 17 16 10 8 7 5 6 5 5 8 9 5 3 8 12 12 6 4 10 10 10 9 6 10 10 12 11 10 10 14 19 14 11 14 18 22 24 24 23 22 21 22 21
25 25 26 29 31 31 31 31 31 32 32 31 31 31 31 30 30 29 28 27 27 27 26 23 22 21 18 13 6 3 0 2 7 6 4 5 6 15 21 22 21 22 22 22 17 12 12 9 8 7 6 6 8 9 8 8 7 6 9 11 15 11 8 11 8 8 7 9 12 10 9 9 9 9 15 19 15 13 16 19 23 23 24 26 24 21 20 19
26 26 28 31 32 32 33 32 33 33 33 33 33 33 32 32 31 30 29 28 27 26 24 22 22 19 14 7 1 1 2 7 16 11 7 2 3 12 19 20 20 22 24 21 13 9 8 9 10 9 8 7 8 11 11 8 9 10 10 11 15 14 13 13 7 6 6 11 13 10 9 10 10 10 13 13 12 15 16 19 21 21 23 25 22 20 20 20
26 27 29 32 33 34 34 34 34 34 34 34 34 34 34 34 33 31 30 29 28 25 23 21 20 16 10 2 0 2 1 14 21 13 13 12 7 12 18 19 20 24 25 22 16 11 9 10 12 9 8 10 8 10 11 9 10 13 13 13 12 12 15 14 9 6 6 9 10 11 13 12 11 12 11 11 14 17 18 18 20 21 21 21 20 21 19 19
26 27 31 34 35 35 35 35 35 35 35 35 35 36 36 35 34 32 31 30 28 24 22 20 18 11 4 0 1 2 6 15 18 13 15 16 14 16 19 20 23 26 23 24 22 14 9 9 12 11 9 11 11 9 10 8 8 10 11 10 9 11 14 12 10 8 7 8 10 13 12 10 10 8 6 12 19 19 20 20 20 21 20 19 18 19 19 19
27 29 33 36 37 37 37 37 36 36 36 36 37 36 36 36 34 33 32 30 26 23 21 18 14 6 1 1 2 2 10 11 12 12 13 14 17 20 21 20 25 27 19 18 19 15 11 10 11 9 8 9 10 10 11 8 6 7 8 7 8 10 12 12 12 10 7 8 14 14 10 9 8 9 4 11 21 21 21 20 20 21 20 19 17 16 17 18
28 32 36 37 37 38 38 38 38 38 38 38 38 37 37 36 35 34 32 29 26 22 19 14 9 2 3 2 4 5 10 6 6 10 5 12 20 23 24 22 25 28 20 12 16 20 18 15 10 4 5 6 8 10 10 9 7 8 8 8 9 10 11 14 15 11 6 7 14 13 10 7 5 10 10 14 20 22 22 21 20 20 18 18 17 15 13 14
33 36 37 37 38 39 38 39 39 39 39 39 39 38 37 36 35 34 31 29 25 19 15 11 4 4 4 1 8 17 14 7 2 11 6 11 20 25 26 24 24 27 22 11 12 22 23 19 11 5 6 4 6 7 7 7 6 7 6 7 8 9 9 12 15 12 7 7 11 11 8 6 5 13 17 18 20 22 22 21 20 18 16 16 15 14 12 14
35 36 36 38 38 38 39 39 40 40 40 41 40 39 38 37 35 32 30 29 23 14 11 8 5 7 4 2 11 22 20 16 18 18 16 13 17 24 25 25 23 22 23 17 13 19 23 20 12 8 8 6 6 5 6 7 6 6 4 4 5 6 7 9 13 15 10 9 13 12 6 5 7 18 20 19 20 21 21 19 18 16 15 15 14 13 12 14
34 35 36 38 38 39 40 40 41 40 41 41 41 41 39 36 33 31 29 25 16 9 7 4 8 9 4 8 13 17 20 26 27 23 22 19 20 22 23 25 23 21 22 23 18 17 20 20 12 7 8 7 6 8 9 7 4 4 4 4 3 2 6 8 10 15 11 10 15 12 6 5 9 20 21 19 22 23 20 19 18 16 15 14 13 13 13 14
35 36 37 39 40 40 41 41 41 41 41 42 42 41 37 34 32 29 24 17 8 5 6 7 11 8 0 10 16 16 14 17 23 27 26 23 21 19 22 25 24 25 23 22 20 16 18 16 9 6 6 7 7 7 7 5 2 1 2 5 3 3 6 8 7 14 12 9 14 10 4 6 11 20 21 20 21 22 21 19 18 16 16 16 13 14 13 12
35 36 39 40 40 41 41 41 43 42 41 43 42 38 34 30 25 20 14 7 4 9 8 7 11 7 2 7 11 12 8 10 17 22 22 25 25 21 24 26 22 24 24 22 21 16 14 10 5 5 6 6 6 5 4 4 4 1 3 5 5 4 5 6 5 9 12 11 12 9 5 5 10 19 21 20 21 21 20 19 19 17 17 16 13 13 13 12
35 36 40 42 41 42 42 43 43 42 42 43 39 35 30 20 11 6 4 6 6 10 9 4 8 7 4 8 10 10 8 11 14 16 17 24 29 26 22 18 13 15 17 17 18 13 8 5 3 4 5 5 4 4 3 5 5 3 2 4 6 6 4 5 7 4 11 15 11 7 8 7 12 20 21 21 22 20 19 19 19 17 16 15 13 13 14 13
36 38 41 43 43 43 43 44 43 42 43 39 33 31 23 10 6 9 14 15 11 7 4 1 4 3 5 7 7 7 4 6 9 12 16 19 28 30 20 11 9 9 8 7 9 7 4 3 3 3 4 5 5 5 6 6 5 5 5 4 5 6 5 6 7 5 10 18 13 8 9 9 15 21 20 21 23 21 20 20 19 18 16 15 14 14 14 14
36 40 43 44 44 44 45 44 42 44 41 32 30 24 10 7 7 9 14 12 7 2 2 2 5 3 5 6 8 7 6 10 12 12 16 16 20 25 18 11 9 9 6 3 4 6 4 2 4 6 6 6 7 7 8 5 5 7 7 5 6 6 6 7 9 6 9 15 12 12 12 11 17 21 20 21 21 20 19 18 17 16 16 15 14 14 15 16
37 41 43 45 44 45 46 43 43 43 32 26 31 20 5 6 4 2 2 3 5 7 8 7 9 9 11 11 11 8 12 14 9 8 16 19 15 13 12 9 7 7 7 6 5 4 5 4 7 8 7 7 8 8 8 6 7 9 7 6 8 8 8 10 9 7 9 14 11 14 14 14 19 21 22 22 19 17 18 17 17 16 15 15 15 16 17 17
39 40 43 45 44 46 45 43 45 36 22 23 26 12 1 4 5 6 9 7 9 12 15 15 14 16 17 16 18 11 10 10 6 9 16 20 16 9 7 8 7 6 6 9 7 3 5 8 10 9 8 7 7 7 7 8 10 10 8 7 9 8 10 12 8 7 4 9 8 12 13 14 19 19 21 22 19 18 19 19 18 19 18 15 16 18 18 16
39 40 44 45 44 47 44 45 42 24 17 26 20 5 2 8 13 16 12 9 10 11 15 18 17 19 20 23 30 18 4 9 12 13 13 15 14 9 6 8 8 7 6 8 7 5 7 10 11 10 8 7 7 8 8 10 11 9 8 7 8 8 9 11 8 6 5 4 6 11 12 13 16 17 19 23 21 18 20 21 20 20 19 16 17 18 17 15
39 41 44 43 46 48 44 46 34 14 22 31 17 6 9 18 24 24 12 6 11 9 13 18 18 18 18 21 27 18 8 10 11 12 12 11 12 10 9 9 9 7 7 10 9 7 7 7 10 10 8 9 10 10 9 9 9 9 8 6 9 11 6 7 7 5 5 5 8 12 10 8 10 10 15 21 20 17 19 22 21 20 21 20 20 19 18 18
40 42 42 42 47 46 46 45 23 14 33 32 11 8 18 25 27 26 11 4 9 7 12 19 15 14 18 15 13 16 12 10 9 11 14 10 10 9 9 11 10 7 7 11 13 11 7 5 9 11 11 12 12 12 11 8 7 9 11 10 11 14 9 7 8 5 6 5 6 10 6 4 6 8 11 15 16 17 19 20 19 19 21 21 20 19 19 20
41 42 41 44 44 46 49 33 13 25 40 21 5 16 27 27 27 25 10 2 7 5 8 13 9 10 17 13 11 15 11 9 11 12 10 10 11 9 6 8 8 9 10 11 11 11 10 6 9 13 13 14 13 12 13 10 6 8 12 14 15 16 12 10 8 5 4 6 3 9 6 4 5 9 12 12 11 14 16 18 19 18 18 18 17 18 18 19
41 41 42 43 42 49 43 16 14 37 32 9 11 27 29 25 30 26 7 1 6 4 3 4 5 8 12 11 10 11 6 8 13 15 12 11 13 10 6 5 4 9 11 8 6 6 9 9 9 13 14 15 14 12 13 12 7 7 10 13 17 18 15 13 10 4 2 5 4 9 9 4 4 7 10 13 14 15 15 17 19 17 17 17 17 17 18 18
41 41 43 42 41 45 28 10 24 30 12 7 21 31 29 26 31 23 3 1 5 4 4 2 3 8 9 10 13 12 4 5 7 13 17 15 13 9 7 7 5 7 7 5 6 5 8 12 12 13 13 13 13 10 12 13 9 8 7 9 13 16 18 17 12 7 5 5 5 6 7 4 5 8 10 14 17 15 14 17 17 17 18 19 18 18 19 19
40 42 43 41 42 40 21 15 23 17 10 18 27 30 29 29 26 12 2 1 3 2 3 2 3 7 6 9 17 11 4 5 7 11 19 19 14 8 9 12 8 8 9 7 8 6 8 13 16 15 12 10 10 11 13 13 10 9 7 8 10 12 16 16 11 8 7 4 6 7 5 3 4 7 9 12 16 16 16 18 18 18 20 20 20 20 20 21
41 42 42 43 44 37 20 14 18 16 17 22 25 30 30 26 15 3 3 2 2 1 1 2 2 5 6 10 15 9 4 3 3 7 15 17 15 8 7 11 9 8 9 10 10 6 6 10 14 15 12 9 9 11 13 13 11 9 7 8 9 10 11 11 9 8 6 5 7 9 7 4 5 5 7 8 11 14 15 17 19 19 20 21 20 21 20 20
41 41 42 44 43 36 25 22 24 16 15 20 26 30 24 14 3 4 2 4 2 4 1 1 1 6 9 9 10 10 6 4 3 5 11 11 13 9 4 6 7 5 6 10 12 10 6 5 8 11 11 11 10 11 13 14 14 11 7 7 8 9 8 5 5 5 5 6 9 11 12 9 6 5 8 9 12 16 14 13 16 17 19 20 20 20 20 19
41 40 41 42 41 32 20 19 22 16 16 22 25 21 12 3 2 3 5 3 3 5 2 1 1 8 13 11 8 10 9 6 2 7 9 8 10 9 4 4 6 4 4 7 10 11 10 8 6 6 9 11 10 10 12 15 17 13 6 6 6 6 5 4 3 3 6 8 8 10 13 13 9 6 7 12 16 20 18 15 16 18 20 21 20 20 20 19
40 40 41 42 39 28 16 19 27 25 21 21 17 10 2 1 2 4 3 4 2 3 1 2 4 3 6 8 5 9 10 7 5 6 9 9 9 10 10 8 7 6 7 8 7 7 8 10 9 7 7 11 11 9 9 11 14 12 7 6 6 4 4 6 6 4 6 7 6 9 11 11 10 7 10 16 17 17 17 17 19 21 22 21 20 20 19 18
41 41 41 41 37 31 28 29 30 25 19 15 9 3 3 2 4 4 4 4 2 1 4 6 10 10 5 6 4 8 9 8 8 6 8 10 9 10 13 11 10 9 6 6 7 5 4 6 9 11 9 9 11 8 7 7 9 11 9 6 7 6 6 8 6 4 4 6 6 8 9 6 6 6 10 17 18 18 18 19 20 21 21 21 20 20 18 18
41 39 42 43 36 28 27 25 20 15 13 9 3 2 2 5 4 4 7 6 7 7 8 10 16 14 6 4 5 6 6 7 9 6 6 9 8 9 11 11 12 10 4 4 5 6 7 6 8 12 9 7 12 11 8 7 7 10 9 7 7 6 5 5 4 4 5 5 5 5 6 5 5 6 11 17 18 18 18 19 20 19 18 18 17 18 18 19
39 40 42 39 28 21 23 22 14 7 5 2 3 2 5 5 1 1 3 2 5 9 12 13 10 9 6 4 6 7 8 8 9 8 6 7 9 9 10 11 13 10 5 5 4 6 10 9 7 11 9 8 11 9 8 7 6 8 8 7 8 6 4 3 4 6 4 3 4 4 5 5 5 6 10 16 18 17 18 19 18 17 16 15 14 16 17 17
39 40 37 31 24 19 24 24 12 9 7 2 3 3 6 3 1 2 3 5 5 8 14 13 5 3 5 3 4 4 6 8 9 9 7 7 10 11 10 10 13 14 10 7 4 4 8 8 8 9 10 12 13 9 9 9 6 5 7 8 7 8 8 5 5 4 2 4 5 4 4 4 3 5 6 10 15 18 17 16 16 17 16 15 14 15 16 16
36 35 30 29 22 19 26 27 7 15 8 3 4 4 3 2 3 4 7 8 7 6 9 7 4 3 4 3 4 5 5 5 7 7 6 7 8 11 13 10 13 18 14 9 5 3 5 5 7 10 13 15 14 12 11 10 8 5 6 8 5 5 6 4 2 3 4 6 4 3 7 5 3 6 4 5 11 15 15 15 15 16 17 16 15 16 17 17
31 27 24 21 13 20 35 32 4 14 5 2 5 4 2 2 6 8 10 11 9 7 4 2 3 2 2 3 4 7 10 7 2 2 5 6 5 11 16 11 12 18 17 12 6 3 5 5 5 10 14 13 11 11 11 9 9 8 6 7 6 5 6 4 4 5 7 7 5 5 7 6 5 6 4 6 10 12 14 14 15 16 17 17 17 17 18 18
22 16 11 8 11 28 41 29 3 8 3 3 5 3 3 3 5 8 10 11 9 7 4 2 3 4 4 6 7 9 9 6 6 6 3 5 5 10 16 11 11 17 19 17 9 4 5 5 5 6 11 10 7 8 9 9 10 8 6 5 5 5 6 6 4 4 5 6 5 4 4 5 6 5 6 10 13 14 15 14 15 17 18 18 17 17 18 17
12 7 7 7 17 37 41 22 0 6 4 4 4 3 4 4 6 8 9 10 7 5 4 4 6 7 8 9 10 9 8 7 8 6 2 4 6 6 13 12 11 14 19 21 16 8 4 5 5 5 6 8 6 6 10 10 9 8 8 7 5 3 3 5 5 4 5 4 4 4 4 6 6 5 8 10 12 15 17 16 16 17 18 19 19 19 18 17
8 3 6 12 27 41 33 12 1 3 3 5 4 5 6 6 7 9 11 12 9 5 6 8 8 7 8 10 10 8 7 8 8 6 4 5 6 4 2 3 7 12 16 18 15 10 6 5 7 6 6 7 6 6 11 14 12 10 9 9 8 5 3 4 6 2 2 4 5 5 6 7 6 5 8 9 10 12 16 18 17 17 19 19 19 20 19 18
4 2 13 25 35 32 17 4 1 2 2 4 4 5 7 6 8 9 9 11 10 7 7 8 9 8 8 9 8 8 8 9 9 8 6 5 8 7 9 15 10 5 9 14 15 14 9 6 7 8 7 8 9 7 9 15 17 13 11 9 8 6 5 6 6 3 2 4 4 4 5 8 6 6 7 8 9 10 12 15 16 18 19 18 18 19 19 19
2 8 22 29 28 18 5 2 4 3 2 4 6 7 7 7 8 8 7 8 7 7 7 7 7 7 3 3 5 7 8 8 7 8 9 9 10 8 12 20 19 14 6 7 11 12 9 6 7 7 7 8 11 9 6 9 13 13 12 11 10 9 8 6 6 4 3 5 4 4 7 7 6 5 6 7 7 8 9 13 16 15 14 15 18 19 18 19
4 8 14 18 21 12 2 1 3 4 5 7 7 8 8 7 6 5 6 8 7 5 6 5 6 6 3 3 4 6 7 5 4 6 7 7 8 9 15 21 21 13 7 7 5 3 7 7 7 6 6 7 9 9 7 6 8 8 9 12 14 15 12 6 4 4 4 5 6 5 7 5 5 4 7 11 9 6 8 10 12 11 10 13 16 16 17 18
5 4 5 10 16 8 0 1 4 4 6 9 9 9 8 7 7 7 7 8 7 5 5 6 7 6 4 5 6 6 6 4 4 7 7 7 9 8 14 22 19 9 9 16 15 7 7 8 9 8 9 10 9 9 8 6 7 7 8 13 17 17 16 9 4 5 6 5 6 5 6 5 7 5 10 14 16 11 8 7 8 9 9 11 12 13 15 16
4 4 4 6 6 3 2 5 7 6 7 9 7 7 8 8 8 9 8 6 6 6 7 6 6 6 5 6 7 6 6 7 7 5 6 9 9 8 13 18 13 11 19 24 19 9 4 5 9 14 14 12 11 9 6 6 8 10 10 12 16 18 18 12 6 7 6 4 5 7 5 4 8 7 10 13 15 16 10 5 7 8 7 7 9 12 13 14
2 3 4 5 4 3 4 5 7 7 7 7 4 5 8 8 8 8 7 4 6 8 8 5 5 6 5 7 6 4 6 10 9 7 7 8 9 10 13 12 9 16 24 21 16 9 2 4 8 14 18 17 15 13 11 8 10 13 14 13 16 18 18 15 11 8 8 6 9 8 7 7 8 8 8 9 12 13 7 4 8 8 8 10 9 9 11 13
2 2 4 6 5 4 5 6 8 9 9 8 5 6 9 9 7 7 6 6 9 9 6 5 5 6 7 8 5 3 7 9 8 7 8 9 11 13 14 9 6 16 22 15 12 8 2 4 7 10 16 20 19 17 18 14 8 10 14 15 16 19 21 19 16 10 11 9 11 8 9 10 8 7 8 8 10 10 6 6 8 6 6 9 12 10 9 10
2 2 3 5 4 4 6 9 11 11 10 8 5 6 9 9 8 6 5 5 8 8 7 7 8 8 8 7 5 4 5 6 7 7 7 8 10 11 11 8 4 10 17 14 10 8 4 5 6 11 12 18 21 18 19 18 12 9 12 14 15 18 21 21 18 15 13 12 10 9 11 11 7 8 10 8 9 8 5 4 4 4 3 4 9 13 13 12
2 1 2 3 3 5 6 7 8 8 8 6 5 6 7 7 8 8 6 5 7 8 7 8 10 11 7 5 5 6 7 6 7 8 8 8 8 6 5 6 6 10 14 11 9 7 5 4 7 11 9 12 19 20 19 19 17 12 10 12 14 16 18 19 18 15 12 11 8 9 11 10 6 7 9 9 7 7 6 3 5 7 6 4 6 10 13 15
5 3 2 2 4 5 5 4 5 5 5 3 3 4 6 7 9 10 8 6 7 8 7 9 12 10 6 5 6 10 11 8 9 10 8 8 7 5 5 5 8 13 11 7 8 8 5 5 7 8 6 6 13 20 22 19 17 13 12 12 12 11 13 14 14 12 11 9 7 7 8 7 7 7 8 10 8 8 9 6 5 7 8 8 7 8 10 13
5 2 1 2 3 4 4 5 5 4 4 3 3 4 3 7 12 11 7 5 5 6 8 10 11 8 6 7 9 11 12 11 11 11 8 9 10 9 9 10 11 12 10 7 8 7 5 6 6 5 4 7 10 16 21 17 13 13 13 12 10 8 9 9 9 11 12 11 8 8 9 8 7 8 8 10 9 8 10 8 7 7 9 9 9 8 9 11
Wind_Direction
354 354 358 359 358 358 357 356 354 351 349 346 343 342 340 340 339 338 338 337 338 337 336 334 332 330 329 331 331 326 321 316 311 302 259 265 267 258 252 240 250 256 220 205 176 166 173 192 209 208 200 199 211 228 199 206 203 177 194 221 250 250 247 217 208 269 256 172 147 137 119 120 130 126 116 124 130 138 141 122 117 112 113 130 138 144 149 152
353 354 357 356 355 355 355 353 351 350 348 345 344 342 340 339 337 337 336 336 337 336 335 334 330 329 329 332 331 326 323 316 309 287 267 280 277 259 250 238 238 235 207 192 176 169 174 197 205 205 203 207 212 206 192 196 189 190 202 221 240 230 222 222 229 261 266 174 142 133 126 129 136 136 137 141 142 137 125 120 121 116 119 129 139 146 151 154
352 352 352 350 353 354 352 351 349 349 347 345 343 341 340 338 336 336 335 335 335 335 335 332 330 329 330 332 330 328 324 320 306 275 286 309 283 240 228 230 226 215 205 197 187 183 187 195 195 196 201 223 227 207 201 192 182 195 200 230 248 234 243 275 270 261 264 159 144 140 134 137 144 142 148 147 144 140 136 139 136 133 138 143 150 151 152 156
350 350 348 348 353 353 350 349 348 347 345 344 342 340 339 337 336 334 334 335 334 335 333 332 330 326 331 333 326 326 326 320 281 270 307 323 258 197 192 213 216 209 210 204 198 192 197 197 193 200 206 224 232 227 225 203 181 186 193 222 244 235 244 267 262 262 263 175 149 146 140 146 153 147 151 147 141 147 155 156 150 148 150 151 155 155 157 160
349 347 347 349 351 351 350 348 346 345 343 342 341 339 338 336 335 333 333 333 333 334 332 332 328 326 333 329 320 327 338 328 282 286 323 342 155 163 177 197 206 210 211 207 204 197 204 202 193 209 217 232 223 228 237 215 206 224 218 227 241 240 226 249 245 236 236 165 142 148 149 152 155 152 156 153 153 168 169 162 153 151 153 155 157 157 159 160
347 346 347 348 349 349 348 347 345 344 342 341 340 338 337 335 334 332 331 330 331 332 331 331 326 328 332 325 322 332 29 270 287 287 337 28 125 159 175 191 200 208 208 207 207 200 208 202 198 209 212 230 218 220 235 214 208 240 240 233 239 241 237 250 236 205 193 139 144 155 156 152 145 152 166 165 166 168 162 156 152 152 154 154 155 156 159 162
347 346 347 348 348 348 347 346 344 342 341 340 338 337 336 334 333 331 330 329 329 329 330 330 325 329 333 335 3 338 116 255 274 262 247 298 149 173 177 185 195 202 200 199 204 206 208 203 205 208 211 228 222 227 239 222 211 229 243 239 239 239 239 251 245 206 174 150 157 155 152 157 151 156 176 172 154 149 147 150 149 149 151 152 155 157 160 163
345 345 346 347 348 347 346 344 342 341 339 338 336 336 334 332 331 329 328 327 327 328 328 326 322 329 337 355 178 327 211 250 267 268 251 243 205 185 179 182 192 194 192 193 199 203 204 209 212 207 211 223 220 223 233 233 224 228 238 238 238 237 238 246 247 225 181 160 155 149 154 170 168 160 175 156 133 140 142 146 147 145 151 155 159 160 160 165
343 343 346 348 348 347 345 342 341 339 337 336 335 334 332 330 329 327 327 326 326 326 324 321 318 327 350 35 11 309 252 260 277 286 270 245 210 195 186 186 192 189 190 199 201 198 200 209 215 215 219 226 229 233 234 235 230 230 235 237 231 229 232 238 242 227 190 165 150 154 165 185 175 140 150 144 134 141 142 146 149 148 156 160 164 163 161 166
341 343 347 348 348 346 344 342 339 338 336 335 333 331 329 327 326 325 325 325 324 323 319 313 311 321 91 188 134 235 265 286 312 302 275 241 209 200 193 193 192 187 191 202 201 199 205 209 212 226 244 242 238 241 241 239 253 258 254 257 243 234 228 222 232 227 197 172 158 162 172 186 166 113 115 148 138 141 144 149 152 153 159 163 167 165 163 168
343 346 348 347 346 344 343 341 339 337 335 333 331 329 326 325 324 323 324 323 321 319 311 303 302 264 172 184 152 228 263 269 1 1 301 218 205 203 201 200 194 190 192 196 203 205 209 218 216 232 257 251 245 251 258 251 266 276 274 281 267 259 242 212 217 221 198 180 169 159 156 172 147 120 144 155 143 145 147 151 156 157 161 164 167 166 167 172
348 348 347 346 345 343 342 340 338 336 334 332 329 326 324 322 321 322 322 319 316 313 301 291 274 171 158 176 218 238 243 210 318 344 306 216 208 213 211 208 202 197 198 193 208 211 213 221 221 234 256 275 266 256 272 270 279 277 266 280 271 276 262 213 208 215 201 190 173 140 139 183 152 138 151 154 148 148 149 153 159 161 162 164 166 166 171 174
347 346 345 345 343 342 340 339 337 335 333 331 328 326 322 319 319 321 320 314 309 302 286 270 206 161 156 225 237 247 253 256 273 284 272 243 222 223 218 214 210 207 208 206 215 218 218 222 221 242 259 274 276 267 294 302 314 301 273 273 276 296 283 226 206 209 206 186 167 138 152 222 158 148 153 152 151 149 151 157 162 164 164 165 166 167 174 176
342 341 341 343 343 341 340 338 336 334 333 331 328 324 320 319 319 318 313 304 299 284 256 216 158 147 168 254 264 271 272 274 273 266 257 241 228 230 228 221 212 210 213 214 222 225 223 222 220 245 256 245 259 285 302 307 318 310 302 294 265 266 274 250 210 203 206 181 164 145 162 218 157 153 156 155 156 152 156 162 164 168 166 167 167 169 176 179
340 340 341 343 343 341 339 338 337 334 333 332 327 322 320 322 319 312 303 291 278 230 192 150 154 148 309 274 279 290 284 273 262 253 245 228 222 230 232 227 217 211 212 217 224 227 225 219 211 239 254 244 247 269 288 299 304 280 280 294 266 221 267 271 228 197 194 175 164 147 148 190 158 158 161 159 160 155 158 164 167 170 168 169 169 170 178 181
339 340 343 344 344 342 340 338 337 336 334 332 327 322 323 324 317 309 300 278 212 184 159 142 172 169 305 275 292 303 273 241 246 251 239 215 210 217 223 226 222 210 207 216 226 231 229 216 202 223 238 251 242 244 284 301 302 275 195 257 264 255 271 283 267 194 173 164 172 164 156 176 158 163 165 161 162 159 159 165 169 171 170 171 170 171 177 180
339 341 343 345 344 342 340 339 338 337 336 332 329 326 328 333 328 336 44 96 119 161 152 127 168 170 263 270 299 300 252 231 242 253 242 215 204 207 214 218 216 205 199 213 224 230 229 209 198 217 226 241 212 185 247 256 261 284 229 242 259 256 259 275 291 248 161 163 184 173 160 172 161 164 167 165 165 161 164 168 170 172 172 173 171 173 177 181
341 341 343 344 344 342 341 339 338 340 337 331 333 332 334 5 59 82 98 103 92 123 159 331 161 169 262 251 269 275 254 258 265 257 245 223 206 203 205 203 197 194 193 211 219 214 217 205 185 220 238 228 202 181 211 232 231 243 234 238 268 261 251 247 264 272 159 167 181 162 164 174 159 163 168 169 168 166 170 170 170 172 173 174 172 175 178 183
341 342 344 344 343 342 340 339 339 341 338 333 340 343 350 42 63 102 112 115 94 95 248 240 176 192 280 249 240 258 303 305 298 272 238 223 209 201 202 209 193 176 179 201 215 201 193 210 206 220 232 218 217 206 207 232 236 239 239 233 256 262 262 248 250 255 171 171 178 163 172 170 159 167 170 172 172 171 172 169 169 172 172 176 175 177 180 185
341 342 344 343 342 341 339 339 339 341 342 343 348 353 16 20 17 102 102 163 212 241 249 232 205 235 276 283 275 290 318 303 288 265 229 210 194 185 195 208 191 177 182 182 203 196 171 210 226 219 220 215 226 222 208 227 244 252 258 253 255 257 266 259 262 267 178 174 185 172 172 169 166 171 170 172 175 173 172 169 170 173 173 177 179 180 181 188
341 342 344 343 341 340 338 338 338 341 348 352 352 357 15 345 342 318 313 277 238 229 242 244 223 235 249 262 273 290 338 313 289 290 249 209 179 164 185 193 193 202 192 182 192 185 172 214 228 217 214 211 223 228 212 222 240 253 254 257 263 253 261 262 272 301 214 180 195 178 169 174 174 173 169 170 173 176 175 172 173 176 177 179 180 183 185 189
341 343 344 343 341 339 337 337 338 341 352 352 351 352 287 326 334 323 313 290 264 225 234 247 235 243 243 245 258 263 312 287 283 297 261 204 173 170 183 185 199 207 192 187 187 191 206 222 223 212 211 212 225 232 221 223 230 245 250 252 263 250 265 275 268 279 259 215 207 188 176 183 181 173 171 172 175 180 177 175 175 175 177 180 182 184 185 185
342 344 344 344 342 338 335 336 338 343 350 345 332 304 326 334 339 337 329 295 284 237 220 235 229 238 239 239 248 238 222 242 252 274 250 197 171 175 178 184 199 200 192 196 189 194 214 218 210 201 203 211 226 233 228 231 225 232 242 239 256 249 246 273 264 250 254 234 199 190 181 187 186 174 179 179 176 178 179 179 177 176 179 182 184 184 182 182
342 344 344 343 341 338 335 336 338 347 344 339 312 315 339 337 343 346 340 269 284 255 217 226 219 227 231 225 215 197 206 219 211 247 245 202 167 163 175 184 193 202 204 201 197 208 222 195 191 198 202 206 219 229 224 229 229 229 234 230 248 253 238 243 265 292 289 269 182 171 176 205 197 179 188 189 177 174 179 180 180 182 184 183 184 184 182 182
341 342 342 342 342 338 335 336 345 342 337 336 328 341 343 343 347 345 338 254 287 269 222 223 209 226 224 203 177 174 193 219 209 225 232 201 176 158 174 184 188 208 209 201 198 216 229 199 184 202 208 206 212 224 221 218 227 233 233 230 239 253 255 251 267 315 303 276 191 157 175 257 235 192 188 188 182 178 179 182 184 187 187 184 183 186 187 186
340 339 340 342 341 338 339 343 334 334 332 326 341 340 340 346 348 340 335 76 296 259 190 189 177 202 195 178 169 141 143 228 217 212 219 213 190 161 168 181 182 209 200 194 205 221 222 201 194 207 207 208 212 219 221 213 216 235 227 224 235 248 259 259 261 283 236 255 238 175 182 232 249 219 197 183 185 186 183 186 187 186 188 187 186 187 187 188
338 337 337 339 339 340 341 315 318 329 325 310 333 336 337 342 342 336 341 48 301 216 163 159 168 181 170 164 160 138 150 212 183 205 214 214 197 159 171 188 173 198 180 172 221 211 191 196 207 214 209 210 213 215 218 207 211 234 208 201 226 237 249 255 257 254 229 257 279 217 195 187 198 216 205 185 185 188 188 191 190 187 189 190 189 188 187 187
335 335 335 335 335 336 328 298 312 316 299 319 330 331 333 336 334 335 97 348 301 161 150 192 185 173 157 155 162 168 226 159 141 205 204 204 206 164 182 202 181 184 175 176 218 201 173 194 205 212 216 217 215 214 214 205 218 239 201 194 221 228 241 248 251 253 232 223 267 254 219 213 228 216 199 187 186 188 193 195 193 190 190 191 191 190 188 189
333 332 332 332 330 331 331 301 290 293 312 329 332 327 327 325 325 31 110 270 277 332 112 147 173 160 133 150 177 209 256 155 176 195 179 194 212 198 198 201 180 184 189 194 220 213 183 197 198 204 219 222 213 217 216 209 222 234 204 207 231 234 243 246 242 249 237 209 230 232 205 218 274 235 192 194 193 193 197 197 196 193 190 191 192 191 190 190
331 327 328 331 328 326 329 303 284 300 332 330 324 322 321 317 337 101 215 241 272 292 225 110 174 151 139 149 193 226 236 271 316 141 158 185 203 207 203 178 178 193 202 211 228 229 219 214 197 199 215 217 206 209 215 214 220 223 198 204 236 244 250 260 248 237 245 241 227 218 202 201 250 247 195 195 194 193 196 197 198 195 192 192 192 191 190 189
329 324 324 327 324 321 320 296 294 314 322 318 322 323 323 335 94 150 219 247 299 261 207 5 356 143 157 167 187 213 222 268 319 136 163 179 187 198 176 164 194 199 215 227 234 232 232 236 227 212 208 206 204 210 213 211 216 220 199 187 221 249 264 274 270 214 230 245 229 214 205 200 222 243 206 204 202 196 194 192 192 194 195 195 193 192 190 189
328 323 319 321 322 315 290 283 301 308 309 322 331 328 6 105 230 210 234 331 317 224 114 3 359 72 191 206 193 195 201 228 226 167 170 180 189 197 191 188 185 188 215 221 219 225 232 233 234 240 223 203 202 209 215 212 211 214 200 179 197 217 234 234 234 222 225 244 235 204 201 205 218 221 203 206 209 205 200 196 192 192 194 195 193 192 190 188
328 322 316 318 321 309 292 296 305 305 314 333 332 338 81 187 233 195 220 286 283 259 45 9 341 343 283 263 258 203 197 212 216 189 177 186 192 202 209 204 184 189 205 199 199 208 245 251 232 234 238 214 205 202 209 211 205 208 198 174 187 195 207 220 229 246 243 257 248 199 194 210 221 223 207 202 205 204 202 203 200 196 193 192 191 190 188 189
328 322 317 318 319 313 310 312 307 299 307 325 353 79 129 226 236 174 203 242 283 313 8 359 330 324 298 256 239 204 199 226 219 190 174 184 192 206 213 207 195 194 164 153 194 199 222 246 220 216 219 206 211 210 199 186 186 207 197 176 194 192 193 216 209 218 231 257 263 209 195 196 193 216 206 199 204 203 202 205 204 202 194 187 188 186 187 191
329 323 320 319 320 335 343 330 306 273 265 309 59 125 201 215 254 229 212 244 303 321 344 347 326 306 300 270 241 209 192 216 217 201 191 184 194 204 205 206 199 190 169 180 203 194 214 238 227 217 215 203 215 211 186 173 181 207 192 184 204 184 175 228 210 198 202 241 254 216 208 211 206 222 202 196 204 201 202 205 201 203 197 184 184 186 188 193
331 328 325 318 322 348 357 341 304 209 181 118 92 203 221 228 267 265 326 359 356 341 338 342 356 313 307 298 282 253 208 211 203 204 216 200 200 201 201 207 197 194 192 190 206 183 200 236 233 219 229 223 219 209 188 184 185 203 197 197 195 166 177 221 236 222 204 236 241 211 241 280 274 255 224 201 206 202 199 201 196 198 194 186 187 190 190 191
333 331 318 307 322 357 2 351 298 187 160 104 174 221 245 277 308 317 330 329 326 341 343 344 1 340 312 294 322 342 320 258 198 194 213 205 205 199 200 209 198 200 199 187 215 197 178 246 234 210 229 231 221 219 217 200 171 168 201 204 180 155 180 191 203 238 233 241 260 223 235 259 241 247 253 196 207 208 200 194 192 194 193 192 194 194 194 191
329 323 304 295 330 359 353 349 302 178 149 130 211 251 273 277 317 318 314 315 317 325 329 292 264 275 289 301 319 339 339 328 270 252 227 212 214 190 194 205 198 200 198 189 215 221 187 258 260 212 220 228 218 217 229 228 199 185 191 190 174 178 194 182 182 209 216 230 264 251 237 230 210 231 233 192 200 207 203 195 191 191 192 197 198 197 198 195
329 322 298 290 344 345 344 348 336 174 160 193 207 238 250 255 284 290 299 312 318 313 301 248 253 287 309 321 321 319 325 322 312 320 274 227 239 191 186 191 195 199 197 191 203 220 193 222 259 232 220 218 212 202 214 232 221 203 190 187 186 184 189 196 196 188 192 212 235 246 247 240 226 210 194 200 200 197 198 198 196 194 192 196 199 198 198 196
334 320 276 287 334 339 342 347 268 174 191 215 202 219 256 272 274 279 293 302 307 304 300 300 303 306 307 310 309 307 310 302 294 301 267 271 291 222 191 188 186 189 195 198 202 206 193 203 235 264 247 220 211 199 201 209 212 206 202 203 207 192 180 207 209 170 157 176 195 215 239 253 247 202 188 206 206 198 197 197 199 198 194 196 198 197 196 195
325 318 261 301 333 338 343 355 139 172 219 230 214 228 249 261 267 274 279 282 278 258 261 280 283 281 285 289 289 287 288 289 287 277 258 278 294 278 244 229 201 187 191 200 203 201 194 206 225 242 249 232 222 210 200 197 199 202 205 206 202 186 151 190 225 226 159 176 175 189 237 257 248 196 193 213 212 204 202 200 202 202 197 198 199 198 197 194
304 267 275 304 328 334 341 4 308 309 242 240 255 261 257 258 264 266 269 271 268 262 265 272 274 274 276 280 285 293 291 279 270 264 260 271 268 280 5 9 344 271 208 201 201 199 191 199 219 224 235 238 233 227 210 203 200 198 206 206 193 186 164 177 218 241 239 223 180 169 236 260 250 195 190 215 212 205 208 202 203 207 202 199 198 198 198 196
289 284 285 304 326 331 333 347 311 306 279 285 298 294 282 272 267 269 284 290 286 283 282 280 285 291 300 316 312 328 329 300 276 274 272 278 285 309 18 20 1 341 309 223 202 195 192 198 211 220 240 251 248 252 256 226 206 200 208 199 190 200 191 181 193 178 209 228 184 195 238 260 274 222 207 238 218 191 212 213 208 211 206 200 201 199 197 197
296 287 284 310 329 325 295 331 306 301 310 311 314 315 312 302 294 304 324 324 319 302 297 312 324 319 352 12 335 347 357 334 333 349 316 291 312 346 13 10 358 350 344 332 324 244 220 204 185 197 224 235 246 250 252 238 216 213 211 199 200 201 186 179 181 170 227 216 165 198 237 253 278 227 215 255 251 191 197 216 214 213 211 208 204 198 195 195
300 281 259 308 324 323 197 352 336 340 338 340 341 336 334 328 327 340 340 320 305 299 307 314 323 328 350 8 350 350 4 342 327 356 347 324 324 342 2 355 343 336 342 342 342 321 256 214 183 190 208 210 218 228 221 204 206 223 212 199 203 200 188 185 170 184 230 215 163 200 232 262 286 236 204 236 254 244 223 217 219 213 214 220 208 195 195 196
315 301 285 312 324 323 335 351 8 13 351 346 343 329 331 330 323 326 326 309 291 305 315 307 318 335 355 12 356 340 347 331 310 320 333 333 328 328 346 342 324 333 351 350 347 333 276 243 214 205 206 208 208 216 210 168 182 213 212 197 201 202 197 189 182 198 198 173 209 217 192 236 281 255 208 217 243 253 248 229 223 207 188 198 207 201 198 197
287 284 305 330 331 330 342 3 14 359 332 329 317 300 318 320 316 320 321 321 323 322 316 303 316 328 346 9 359 329 332 326 311 315 326 328 318 313 329 328 317 349 359 353 344 338 308 307 273 230 216 210 202 207 210 184 180 202 207 200 198 201 200 195 204 200 146 158 234 225 177 207 248 252 238 227 237 248 256 240 230 216 187 173 178 199 205 205
266 272 308 316 305 320 340 335 333 329 322 324 313 298 310 312 318 331 327 326 335 334 324 303 307 330 357 5 352 321 337 331 312 321 336 335 329 327 333 331 335 4 4 349 337 344 284 269 301 275 240 218 204 206 211 207 193 194 203 202 195 197 201 204 209 187 148 186 229 205 184 208 226 241 244 238 240 245 250 239 225 224 220 178 157 165 190 206
271 267 294 307 297 303 311 305 310 315 317 324 319 300 308 314 320 331 332 332 336 333 324 316 323 345 357 356 346 326 334 328 306 318 335 332 333 335 331 323 334 11 1 339 328 341 302 256 317 325 282 229 210 207 210 215 210 196 204 206 198 197 201 207 211 195 181 205 211 182 200 220 221 228 231 231 239 240 238 229 180 173 230 210 172 169 173 183
264 280 297 313 297 287 289 291 305 311 308 314 307 291 303 314 318 325 334 331 314 307 316 323 327 337 340 343 340 305 295 293 283 297 319 321 327 339 326 316 324 335 341 333 320 329 327 296 319 335 314 241 216 207 208 216 213 202 205 207 204 204 202 207 212 201 196 215 205 185 211 233 241 237 238 241 235 226 229 210 155 176 189 189 204 193 177 178
249 287 310 305 294 295 301 302 303 298 293 297 288 296 320 325 318 318 315 295 273 281 312 323 319 322 321 318 308 285 280 278 269 277 290 290 294 302 288 289 308 313 319 320 307 310 312 300 316 338 333 273 228 210 207 215 216 213 215 208 203 206 207 209 209 194 188 197 196 195 214 239 251 234 234 242 226 214 226 205 163 203 200 170 189 205 192 188
255 289 265 244 286 295 298 300 298 290 288 294 295 301 309 301 301 306 304 290 274 286 303 309 310 314 306 292 286 278 279 281 278 280 282 276 276 272 263 264 270 279 288 294 292 293 292 291 313 338 331 302 269 224 206 208 219 226 224 205 186 194 211 216 214 204 197 185 180 205 215 217 221 205 208 235 229 210 218 202 167 193 197 175 180 197 199 196
Height
814 812 810 809 807 805 804 802 801 799 797 795 793 792 790 788 787 785 784 782 781 779 778 776 774 772 770 769 767 764 761 759 756 756 754 741 738 744 745 746 748 750 751 753 754 756 758 761 760 760 764 766 766 765 763 762 760 771 784 794 798 793 785 772 766 763 760 758 755 752 750 759 768 763 758 762 768 771 777 779 778 777 777 779 782 785 789 792
814 812 810 808 806 804 803 801 800 798 796 794 792 791 788 787 785 784 782 780 779 778 776 774 772 771 769 768 766 763 760 757 754 751 743 732 734 738 740 743 746 748 749 750 751 753 757 759 757 759 764 767 765 762 764 760 760 773 783 791 791 780 768 755 754 752 751 755 753 750 749 754 761 761 759 769 779 776 782 786 783 785 784 784 784 786 790 791
813 811 809 807 805 803 802 800 799 797 795 794 791 789 787 786 783 782 781 779 778 776 775 772 771 769 768 767 764 763 760 757 754 744 733 729 730 731 735 740 743 746 746 747 749 750 753 754 755 759 765 769 764 762 766 761 761 769 777 790 780 763 757 748 747 746 744 747 750 751 748 752 754 752 757 769 779 779 783 786 785 790 789 787 786 785 789 791
813 811 808 806 804 802 801 799 798 796 794 792 790 788 786 784 782 780 779 778 776 775 773 771 769 768 767 765 763 762 759 760 752 736 729 729 727 727 732 737 740 744 745 746 748 749 751 753 755 758 765 771 765 762 767 762 762 766 771 781 765 752 758 749 742 742 740 741 746 750 749 754 751 747 755 765 779 785 780 775 775 782 784 785 786 785 788 790
812 810 807 805 803 801 799 798 796 794 792 790 789 787 784 783 781 778 777 776 774 773 771 769 768 766 766 764 763 760 761 767 749 730 731 729 727 729 732 735 739 742 744 747 748 749 751 752 755 760 767 771 769 768 766 756 756 765 764 762 753 751 759 746 737 739 736 738 743 748 751 752 748 748 754 759 775 778 769 765 765 769 773 776 780 783 786 789
811 809 807 804 802 800 798 796 794 792 790 788 787 785 783 781 779 777 775 773 772 771 769 768 766 765 765 762 762 760 764 766 741 729 733 729 730 731 732 736 737 740 743 746 746 748 751 752 758 765 767 769 770 768 762 752 754 767 763 753 749 749 752 742 733 733 731 737 744 747 745 744 749 755 752 752 761 760 755 757 760 763 765 769 775 780 785 787
810 808 806 803 801 799 796 794 792 790 788 786 784 782 781 778 777 775 773 772 770 769 768 766 764 764 763 762 762 760 764 756 732 730 733 730 733 731 734 736 736 740 742 744 745 748 750 753 760 762 766 769 767 762 757 752 752 764 763 752 747 745 745 738 730 729 728 736 738 736 739 743 752 756 750 751 753 751 754 756 758 763 765 770 774 778 783 786
809 807 804 802 799 797 794 792 790 787 785 783 781 779 778 776 774 773 771 770 768 767 766 764 763 762 762 762 761 762 763 745 726 728 730 731 734 732 734 734 736 739 740 743 743 745 749 754 757 756 766 766 759 757 753 755 756 758 758 750 745 743 740 733 730 727 727 731 730 733 740 743 744 745 750 753 752 751 755 758 760 764 768 772 775 777 781 785
809 806 803 801 798 795 793 790 787 785 783 780 779 776 775 773 771 770 769 767 765 765 763 762 762 760 762 761 762 765 752 730 724 728 728 730 732 732 733 733 735 737 738 740 739 743 748 751 752 750 759 757 752 754 750 759 761 751 748 746 743 742 736 733 731 727 728 728 727 737 743 740 735 740 754 753 749 753 754 760 763 765 771 774 776 777 779 783
808 805 802 800 796 794 791 788 785 782 780 778 776 773 772 770 768 767 766 764 763 763 761 761 760 759 762 759 764 764 738 723 727 725 725 728 730 732 732 732 734 734 737 738 738 742 743 745 744 742 749 750 749 750 748 754 752 739 741 740 738 738 733 732 733 726 727 726 725 736 743 739 731 743 765 757 746 752 757 763 764 766 772 773 776 776 778 781
807 804 801 798 795 793 789 786 783 780 778 775 772 770 768 766 765 764 762 762 760 760 759 758 758 759 760 759 764 756 729 723 727 723 724 726 728 730 730 730 731 732 735 736 737 737 737 738 737 742 751 748 745 747 743 741 739 735 738 741 737 734 731 729 732 727 728 730 724 728 740 740 736 748 763 755 747 751 758 765 765 767 772 772 776 777 778 780
806 803 800 797 794 791 788 785 781 779 775 772 770 766 764 763 761 761 759 758 757 757 756 755 757 757 758 761 755 738 724 724 724 724 728 727 727 728 727 729 728 730 732 733 734 732 734 734 736 748 750 744 748 751 742 731 733 735 736 746 743 736 735 729 728 726 728 733 722 726 749 753 749 754 754 748 748 750 757 765 766 768 771 772 775 777 779 779
805 802 799 796 792 789 786 783 779 777 773 770 766 763 761 758 757 757 755 754 754 754 753 753 755 755 759 754 733 722 724 724 723 726 728 728 728 727 728 729 727 728 729 730 731 730 732 733 737 745 742 745 752 745 734 728 733 737 737 746 749 749 746 729 723 724 726 730 717 729 767 769 755 753 748 745 747 753 761 765 766 769 769 771 773 776 778 778
805 802 798 795 791 788 784 781 778 774 770 767 763 760 757 755 754 753 751 750 749 751 751 752 753 755 757 741 719 719 723 720 722 723 724 727 727 727 727 727 727 726 727 727 727 728 730 730 734 740 738 743 744 735 736 737 738 742 745 747 752 762 754 728 720 725 729 728 713 731 770 771 758 753 746 745 746 751 762 764 766 768 767 769 771 775 777 776
805 801 798 794 791 787 783 780 776 772 768 764 759 756 753 751 749 746 746 746 747 749 748 751 752 754 755 736 716 717 719 717 718 715 718 722 724 725 724 725 726 724 725 726 725 726 727 729 736 744 742 737 738 745 751 750 744 746 757 760 757 761 754 730 718 720 729 728 715 734 766 766 757 753 745 743 745 749 759 763 764 766 766 768 769 772 776 776
804 800 796 793 789 786 782 778 774 770 766 761 757 752 750 748 745 742 742 742 745 747 748 752 750 753 755 735 715 714 714 713 711 708 713 717 720 721 721 723 724 723 724 724 724 725 725 729 735 740 741 740 745 754 758 761 757 751 759 766 760 758 757 740 720 712 719 727 724 734 757 762 755 750 744 742 745 749 756 761 762 764 764 765 768 770 773 775
803 799 795 792 788 784 780 776 773 769 764 759 755 749 746 745 742 740 741 742 745 746 748 750 749 753 746 724 716 716 709 707 707 707 708 711 715 717 719 722 722 722 722 723 725 725 726 731 736 738 740 745 748 754 767 776 772 761 759 762 758 755 756 749 732 715 713 726 733 734 745 752 748 746 744 742 744 749 755 759 759 761 762 763 765 768 770 773
802 798 794 791 787 783 779 775 771 767 762 757 754 749 745 744 742 742 741 743 745 748 751 749 751 756 739 719 718 713 705 706 706 705 705 707 710 714 717 719 720 721 725 729 728 729 732 733 738 747 747 748 748 755 771 775 768 765 763 762 759 753 753 752 740 722 716 726 734 740 745 746 744 744 744 742 741 747 751 752 755 757 759 761 762 765 767 770
801 797 793 789 785 782 778 774 770 767 761 755 752 748 744 744 743 743 743 744 747 750 750 747 747 746 729 715 712 707 704 706 705 704 703 704 707 710 714 716 718 723 733 740 738 732 736 740 746 754 755 753 750 752 760 759 755 757 756 758 760 756 752 746 735 720 718 730 736 739 743 744 745 745 743 741 739 744 748 748 752 754 756 759 760 762 763 766
801 797 793 788 784 780 776 773 769 766 762 757 753 748 747 750 750 748 744 743 744 741 739 738 737 731 720 712 706 705 706 704 704 703 699 701 703 709 714 716 721 727 735 744 744 733 735 750 755 753 753 751 747 745 747 748 747 749 753 755 754 756 752 738 729 718 712 730 737 731 735 739 741 739 738 739 740 745 748 749 751 752 754 756 758 759 759 761
801 797 793 788 783 778 775 772 768 765 763 760 757 755 757 760 762 758 747 738 732 731 730 727 727 724 716 711 703 706 711 707 704 700 698 699 700 712 719 719 729 736 735 737 740 734 738 753 752 745 745 743 742 741 742 745 747 748 752 755 753 753 748 731 727 721 711 727 737 728 734 738 734 733 733 734 740 744 743 746 748 749 751 752 754 755 755 755
800 796 792 788 782 777 773 770 767 765 763 761 760 761 761 761 763 760 752 741 726 723 725 719 720 717 709 707 702 707 720 719 710 700 696 697 701 715 720 720 733 738 733 734 740 745 748 751 743 738 738 738 740 739 741 745 747 750 750 755 756 747 742 733 725 721 716 728 738 732 736 737 729 728 729 729 733 735 733 735 739 742 747 750 750 751 751 753
799 795 792 787 782 777 771 768 766 764 762 761 761 761 760 758 757 754 753 747 726 715 716 713 713 710 704 705 700 707 721 720 717 704 691 697 703 709 715 722 732 734 734 737 742 752 755 745 735 733 734 738 742 740 743 747 747 749 750 756 756 741 745 746 731 723 719 722 730 732 736 737 731 730 729 725 724 726 728 728 730 734 738 741 741 743 746 750
798 794 792 787 783 777 770 767 764 763 762 761 761 760 759 757 755 753 751 748 732 711 703 699 699 699 694 694 693 703 713 709 711 702 687 694 702 704 711 718 727 733 733 733 737 744 746 735 727 730 733 737 743 742 743 750 752 749 745 750 749 737 742 745 733 727 722 719 721 731 747 746 738 741 737 725 721 724 726 728 730 731 730 731 734 736 739 741
796 794 792 787 784 777 770 766 763 764 762 758 759 758 757 755 752 753 752 752 740 713 697 691 691 689 680 686 691 693 703 702 698 693 683 688 696 702 709 710 720 733 732 730 735 739 736 726 723 731 734 734 742 743 741 746 754 752 741 738 738 734 735 736 733 735 742 741 725 731 764 764 742 742 740 729 728 729 727 729 732 731 729 731 734 735 735 736
797 794 790 788 785 777 771 767 764 765 761 758 758 755 755 752 750 752 753 761 747 712 698 692 687 682 673 683 686 687 708 702 682 681 682 683 685 692 708 710 712 724 724 724 731 731 725 721 722 729 733 734 739 741 735 737 752 755 736 727 729 730 732 734 735 744 755 753 728 724 756 766 749 743 738 730 731 730 728 729 729 729 730 729 730 730 731 733
796 793 789 788 785 781 778 773 769 768 764 760 757 755 755 750 751 750 753 769 746 702 694 692 683 677 670 676 678 689 710 693 676 681 677 680 681 683 705 714 712 716 713 721 734 724 716 721 724 726 730 735 738 739 730 729 745 746 725 721 728 729 731 732 735 746 748 742 732 724 736 754 755 743 731 728 732 732 730 730 727 726 726 725 725 725 726 728
795 792 789 786 784 785 783 778 774 769 766 761 757 757 753 750 753 750 760 772 731 684 684 686 675 669 668 674 675 682 687 676 683 685 667 675 682 683 703 709 709 714 706 719 736 719 708 719 723 723 731 734 732 729 721 722 735 731 717 719 723 724 728 726 732 741 738 742 751 737 731 754 758 735 725 728 733 736 732 727 724 722 721 720 720 720 720 721
793 790 787 784 781 781 781 779 775 768 764 761 759 757 752 753 752 751 769 767 715 678 677 676 673 672 673 680 680 679 675 672 681 675 665 676 678 681 698 698 701 711 704 711 723 714 706 708 708 715 726 726 722 718 713 719 726 717 712 716 718 721 723 725 732 736 737 751 760 740 732 754 758 736 731 735 735 734 728 720 717 714 715 715 714 715 715 716
792 787 786 784 779 777 777 774 768 765 762 761 761 756 752 754 753 765 782 756 709 686 676 674 678 678 682 690 690 685 681 677 673 669 674 680 678 681 687 687 695 707 708 708 711 708 701 696 697 705 710 709 710 710 708 711 713 708 712 720 724 725 723 727 730 732 748 759 751 735 726 740 754 741 730 729 722 717 717 716 713 710 710 710 708 709 710 711
791 785 783 783 780 777 777 769 762 763 764 762 760 755 754 756 758 775 771 730 703 693 679 680 684 679 685 692 692 689 687 683 675 677 685 685 688 692 692 696 702 710 718 716 711 707 703 702 700 695 693 695 703 707 704 702 703 708 717 725 734 737 733 738 736 738 760 761 738 726 720 730 748 738 721 714 702 696 701 706 708 707 706 704 702 702 702 705
790 783 778 779 778 776 774 766 761 764 763 762 761 756 757 762 766 769 747 714 707 697 685 691 690 686 690 687 687 687 687 687 679 680 688 690 696 695 694 701 705 718 729 722 716 714 709 706 699 693 688 687 700 711 709 704 704 711 720 728 745 754 753 757 754 749 758 749 725 717 721 730 733 717 705 704 696 691 691 691 694 696 697 696 696 696 697 699
789 782 775 773 774 772 767 761 760 762 762 762 762 758 762 770 764 750 734 720 709 690 687 695 692 692 696 692 690 685 684 687 680 680 684 686 696 695 690 691 692 708 720 716 720 723 719 708 697 698 693 682 692 709 716 714 710 714 721 730 746 757 766 771 763 754 752 739 718 710 720 731 725 705 693 692 689 684 682 680 680 682 686 688 688 689 692 694
787 781 773 769 769 767 762 760 759 760 762 762 761 762 768 772 755 735 731 726 706 689 694 702 697 693 692 693 689 681 686 689 678 680 685 687 698 699 694 691 688 695 704 712 719 721 729 723 701 697 693 682 685 693 699 704 707 709 707 716 731 738 750 761 758 755 751 737 721 716 723 729 720 699 681 677 676 674 674 673 672 674 676 680 683 685 689 691
785 779 772 766 765 763 760 759 758 759 762 761 762 766 768 762 747 735 729 722 712 706 706 706 703 698 692 688 682 673 680 685 678 680 685 687 695 695 692 690 687 690 699 714 715 709 722 719 690 681 679 676 682 681 679 692 706 703 695 709 722 717 723 736 736 733 733 733 726 719 717 708 694 680 668 667 670 669 671 670 671 675 675 678 684 685 686 687
784 775 769 764 763 762 760 759 757 758 761 762 766 769 761 750 741 736 727 721 726 726 720 714 708 709 705 693 684 677 673 674 677 682 683 683 686 686 685 682 679 683 691 703 707 704 716 710 682 678 678 671 675 674 670 685 700 699 699 708 705 694 702 723 730 719 721 738 730 712 710 700 687 682 670 669 672 669 671 672 672 675 675 678 683 682 682 683
785 777 769 762 762 762 760 758 757 757 759 763 769 765 754 745 738 735 731 728 731 730 731 734 723 718 719 707 696 691 684 678 677 681 683 682 680 676 676 675 670 674 678 687 695 693 702 705 682 678 684 671 662 668 668 667 677 693 704 697 688 689 695 711 732 731 732 746 731 709 711 708 704 699 678 673 680 675 672 673 673 674 675 678 679 677 677 676
788 781 770 761 760 760 757 756 755 757 758 763 768 761 753 748 739 736 733 730 730 729 736 744 730 716 718 716 708 699 698 697 689 685 684 680 674 665 666 671 666 665 666 675 688 684 688 705 690 672 679 671 658 671 681 669 663 676 684 678 684 706 712 711 727 735 739 747 734 714 710 706 704 698 681 677 683 678 674 673 672 674 675 675 674 673 672 671
790 785 772 759 758 757 755 753 752 755 760 764 768 761 751 747 740 736 733 730 731 732 734 735 726 718 716 718 716 706 704 707 701 699 695 683 671 657 653 662 663 662 661 667 682 681 680 702 700 673 667 669 665 677 691 685 670 668 672 673 679 693 704 706 709 716 728 740 735 725 718 705 692 681 674 674 674 671 672 672 670 669 669 668 668 667 667 668
793 791 774 758 758 757 752 750 749 755 761 759 760 756 748 744 740 735 732 732 732 732 733 731 728 728 723 719 719 713 709 707 702 703 699 685 674 661 648 650 657 659 658 659 669 675 678 693 700 681 666 672 677 676 679 682 679 678 683 686 685 685 690 696 696 696 708 725 731 731 726 704 677 664 662 664 665 663 663 664 664 661 660 661 659 658 661 662
796 796 774 757 760 759 752 751 750 754 757 754 752 750 745 742 739 735 731 731 731 729 727 728 729 729 726 721 719 714 710 708 703 701 696 687 683 675 657 650 652 654 657 662 666 670 677 686 693 688 678 679 676 661 657 663 667 673 680 682 684 687 692 704 709 696 693 706 713 718 722 698 664 652 651 651 656 657 654 654 656 654 652 653 652 651 653 655
800 796 772 760 765 762 758 759 755 753 755 752 747 744 740 738 737 736 732 729 729 726 721 722 723 722 721 718 714 712 709 706 702 698 692 686 682 678 671 666 664 657 655 660 659 655 662 674 685 688 679 673 664 649 647 651 651 658 666 668 675 683 688 704 716 704 694 696 694 701 710 688 654 643 645 645 648 650 648 648 650 648 645 646 647 646 647 648
800 791 770 764 768 765 766 768 759 755 755 749 743 740 737 737 736 734 732 731 729 726 723 721 719 718 720 720 718 718 715 707 700 694 690 685 677 675 680 682 679 671 662 659 655 649 654 667 680 685 676 664 656 648 645 645 648 658 660 658 666 674 677 685 691 691 693 695 694 704 708 684 652 639 639 641 644 645 645 643 644 644 642 642 642 641 643 644
798 788 772 768 769 767 771 771 764 760 755 749 747 746 741 738 736 736 738 738 734 731 729 725 721 720 722 724 723 723 722 716 708 701 699 697 687 680 685 687 685 683 679 676 670 661 659 662 673 688 692 684 676 670 664 657 655 659 657 654 655 660 668 676 677 682 691 691 691 703 705 681 655 641 637 638 641 643 644 640 640 643 642 641 639 638 640 641
797 788 775 769 769 768 770 769 765 766 762 758 757 754 748 743 739 739 742 741 735 733 732 729 725 723 724 725 726 724 723 724 721 713 709 708 697 687 689 693 690 686 683 680 675 669 662 654 659 679 694 697 692 683 674 665 659 655 653 652 652 654 664 674 680 689 697 692 687 693 693 676 657 646 641 639 638 640 641 638 638 639 640 640 638 637 638 638
800 793 780 772 768 768 768 766 766 770 769 767 766 760 754 751 745 739 739 739 734 730 731 729 724 725 726 728 731 730 725 724 726 721 716 716 709 698 696 698 694 687 682 678 673 669 664 653 648 655 664 668 669 662 653 651 655 657 654 652 652 652 655 665 679 687 690 690 688 683 679 673 663 654 648 643 639 637 638 638 638 635 634 636 637 637 636 636
802 798 787 780 776 772 770 769 771 774 772 770 770 763 757 755 750 743 739 738 735 732 730 729 726 728 731 732 735 735 730 726 725 722 721 720 715 705 701 699 695 688 683 681 676 672 676 671 656 647 644 642 643 643 639 640 647 650 651 651 651 650 651 660 672 674 675 687 691 677 669 673 667 656 651 647 640 637 636 636 635 632 627 628 633 636 637 636
799 795 787 787 787 782 778 777 775 775 772 769 767 762 758 756 753 750 746 741 738 736 735 732 729 730 733 735 737 737 734 731 726 723 723 722 717 710 702 696 694 690 689 690 683 678 685 680 662 652 646 635 632 634 633 635 640 641 642 646 646 647 650 655 661 662 664 675 678 669 665 667 661 651 648 643 637 636 635 631 628 628 626 624 627 632 636 638
797 795 788 787 789 787 785 782 777 775 772 770 767 763 759 757 755 753 750 747 744 741 740 740 736 733 734 735 737 739 738 736 731 727 725 725 723 719 713 703 695 693 698 699 688 681 685 678 663 661 654 637 630 631 628 631 637 638 638 639 640 642 644 646 650 652 654 657 659 659 660 659 652 645 640 635 629 628 629 628 625 625 626 627 627 627 629 634
795 795 791 790 791 787 785 782 779 777 774 771 770 765 759 758 757 753 750 751 751 746 742 743 740 735 735 736 738 740 736 733 732 728 725 727 726 724 721 714 703 698 703 705 694 685 688 681 668 668 664 644 629 627 627 628 633 638 638 635 634 639 641 643 644 646 652 655 654 656 660 657 648 639 634 629 626 625 625 626 626 623 620 624 628 627 625 626
793 793 792 794 792 785 783 781 779 779 777 773 771 766 761 761 759 755 752 748 749 747 744 744 742 736 735 736 738 737 731 728 728 724 722 724 724 723 721 716 711 708 707 707 701 691 689 685 673 674 680 660 633 627 629 625 629 638 639 634 634 638 640 640 639 639 646 652 654 658 662 657 644 636 632 627 625 626 625 623 626 624 619 621 627 628 626 624
793 792 792 795 792 785 783 781 779 779 776 771 769 767 768 768 761 758 757 748 743 744 743 742 741 738 737 737 735 731 726 724 723 719 717 717 715 715 715 711 710 711 707 706 704 694 689 688 681 682 688 671 643 631 626 630 644 646 632 626 631 633 633 634 634 633 633 637 647 653 651 641 631 628 630 628 625 628 625 620 622 623 621 621 623 624 624 622